7 * 24
多渠道服务支持
GEESAT-2 04 是一颗由韩国开发的地球观测卫星,属于GEESAT-2系列。该卫星主要用于高分辨率地球成像,支持环境监测、灾害预警及国土管理等应用。搭载先进光学传感器,具备高精度图像获取能力。该卫星于近期成功发射,进一步增强了韩国在遥感技术领域的自主能力,并为科学研究和政府决策提供重要数据支持。
中国
(CN)
| 数据来源 | 国际轨道数据 |
| 星历时间: | 2025-12-14T16:19:08+0800 23小时前 查看轨道信息 |
| 半长轴: | 6957.205km |
| 偏心率: | 0.0006044 |
| 轨道倾角: | 49.991° |
| 近地点辐角 | 33.711° |
| 升交点赤经 | 117.609° |
| 平近点角 | 326.422° |
| 近地点: | 574.865km |
| 远地点: | 583.275km |
| 周期: | 96.252分钟 |
| 每日圈数: | 14.960656 |